[TLELIST] Archives

 

Current TLEs

January 31st 2007 PDT

HST 1 20580U 90037B 07029.30098602 +.00000309 +00000-0 +11158-4 0 07945 2 20580 028.4691 015.7429 0003503 068.6587 291.4378 15.00181307719081 ISS (ZARYA) 1 25544U 98067A 07031.49667941 .00028076 00000-0 16466-3 0 5521 2 25544 051.6348 090.3751 0022393 151.8522 342.7249 15.77714807469183 CXO 1 25867U 99040B 07030.16666667 +.00000145 +00000-0 +00000-0 0 00298 2 25867 061.0790 092.2379 6044362 286.5470 359.6658 00.37799783001738 ____________________________________________________________________ These 2-Line ...Continue Reading

Current TLEs

January 30th 2007 PDT

HST 1 20580U 90037B 07028.30306759 +.00000314 +00000-0 +11512-4 0 07938 2 20580 028.4690 022.2493 0003407 057.5866 302.5054 15.00181009718931 ISS (ZARYA) 1 25544U 98067A 07030.48212567 .00017843 00000-0 10660-3 0 5451 2 25544 051.6351 095.6118 0022536 148.5510 339.7786 15.77637461469026 CXO 1 25867U 99040B 07030.16666667 +.00000145 +00000-0 +00000-0 0 00298 2 25867 061.0790 092.2379 6044362 286.5470 359.6658 00.37799783001738 ____________________________________________________________________ These 2-Line ...Continue Reading

Current TLEs

January 29th 2007 PDT

HST 1 20580U 90037B 07029.23445821 .00000303 00000-0 10722-4 0 7924 2 20580 028.4691 016.1768 0003478 067.6767 292.4193 15.00181231719073 ISS (ZARYA) 1 25544U 98067A 07029.33477944 .00015811 00000-0 95139-4 0 5363 2 25544 051.6356 101.5351 0022652 144.2836 303.3621 15.77587746468844 CXO 1 25867U 99040B 07027.50000000 +.00000202 +00000-0 +00000-0 0 00288 2 25867 061.0595 092.3039 6044067 286.6019 356.6009 00.37804478001721 ____________________________________________________________________ These 2-Line ...Continue Reading

Current TLEs

January 28th 2007 PDT

HST 1 20580U 90037B 07028.17001176 .00000303 00000-0 10659-4 0 7915 2 20580 028.4690 023.1169 0003369 055.8339 304.2568 15.00180878718914 ISS (ZARYA) 1 25544U 98067A 07028.51836816 .00015333 00000-0 92516-4 0 5308 2 25544 051.6341 105.7479 0022638 141.3409 346.5442 15.77558636468715 CXO 1 25867U 99040B 07027.50000000 +.00000202 +00000-0 +00000-0 0 00288 2 25867 061.0595 092.3039 6044067 286.6019 356.6009 00.37804478001721 ____________________________________________________________________ These 2-Line ...Continue Reading

Current TLEs

January 27th 2007 PDT

HST 1 20580U 90037B 07026.37375781 .00000336 00000-0 13302-4 0 7904 2 20580 028.4688 034.8275 0003382 035.7208 324.3605 15.00180469718646 ISS (ZARYA) 1 25544U 98067A 07027.50300565 .00014560 00000-0 88173-4 0 5241 2 25544 051.6354 110.9925 0022882 137.8492 339.7288 15.77523360468556 CXO 1 25867U 99040B 07024.87500000 +.00000313 +00000-0 +00000-0 0 00272 2 25867 061.0370 092.3812 6043011 286.6137 359.2982 00.37807883001711 ____________________________________________________________________ These 2-Line ...Continue Reading

Current TLEs

January 26th 2007 PDT

HST 1 20580U 90037B 07025.37583857 +.00000362 +00000-0 +15286-4 0 07922 2 20580 028.4686 041.3344 0003364 024.1992 335.8758 15.00180216718495 ISS (ZARYA) 1 25544U 98067A 07026.48796005 .00014753 00000-0 89388-4 0 5204 2 25544 051.6353 116.2327 0022989 134.0667 335.1391 15.77493051468391 CXO 1 25867U 99040B 07024.87500000 +.00000313 +00000-0 +00000-0 0 00272 2 25867 061.0370 092.3812 6043011 286.6137 359.2982 00.37807883001711 ____________________________________________________________________ These 2-Line ...Continue Reading

Current TLEs

January 25th 2007 PDT

HST 1 20580U 90037B 07025.24278270 .00000325 00000-0 12391-4 0 7897 2 20580 028.4687 042.2034 0003301 021.2408 338.8314 15.00179881718478 ISS (ZARYA) 1 25544U 98067A 07025.47449385 .00015854 00000-0 95858-4 0 5143 2 25544 051.6349 121.4651 0023013 130.6956 339.2314 15.77465724468235 CXO 1 25867U 99040B 07024.87500000 +.00000313 +00000-0 +00000-0 0 00272 2 25867 061.0370 092.3812 6043011 286.6137 359.2982 00.37807883001711 ____________________________________________________________________ These 2-Line ...Continue Reading

Current TLEs

January 24th 2007 PDT

HST 1 20580U 90037B 07023.44652672 .00000396 00000-0 17970-4 0 7884 2 20580 028.4682 053.9143 0003303 000.5336 359.5257 15.00179481718208 ISS (ZARYA) 1 25544U 98067A 07024.52434380 .00017153 00000-0 10347-3 0 5072 2 25544 051.6339 126.3688 0023063 127.0183 343.5393 15.77439425468082 CXO 1 25867U 99040B 07022.20833333 +.00000380 +00000-0 +00000-0 0 00268 2 25867 061.0145 092.4515 6039542 286.6120 356.3592 00.37808033001700 ____________________________________________________________________ These 2-Line ...Continue Reading

Current TLEs

January 23rd 2007 PDT

HST 1 20580U 90037B 07022.44860660 +.00000401 +00000-0 +18348-4 0 07912 2 20580 028.4681 060.4211 0003331 348.6962 011.3552 15.00178987718052 ISS (ZARYA) 1 25544U 98067A 07023.51024573 .00017087 00000-0 10328-3 0 5007 2 25544 051.6342 131.6051 0022876 123.0102 344.8782 15.77404214467923 CXO 1 25867U 99040B 07022.20833333 +.00000380 +00000-0 +00000-0 0 00268 2 25867 061.0145 092.4515 6039542 286.6120 356.3592 00.37808033001700 ____________________________________________________________________ These 2-Line ...Continue Reading

Current TLEs

January 22nd 2007 PDT

HST 1 20580U 90037B 07021.45068604 +.00000446 +00000-0 +21856-4 0 07928 2 20580 028.4678 066.9275 0003362 337.1547 022.8892 15.00178661717901 ISS (ZARYA) 1 25544U 98067A 07022.36130190 .00021130 00000-0 12683-3 0 4922 2 25544 051.6339 137.5340 0023036 118.8092 300.3048 15.77372668467743 CXO 1 25867U 99040B 07022.20833333 +.00000380 +00000-0 +00000-0 0 00268 2 25867 061.0145 092.4515 6039542 286.6120 356.3592 00.37808033001700 ____________________________________________________________________ These 2-Line ...Continue Reading
  • This mailing list is a public mailing list - anyone may join or leave, at any time.
  • This mailing list is announce-only.

International Space Station (ISS) / Hubble Space Telescope (HST) / Chandra X-Ray Observatory Orbital Data via EMAIL

Privacy Policy:

Private list